Regional Weather Roundup
Issued by NWS

Home | Current Version | Previous Version | Text Only | Print | Product List | Glossary On
Versions: 1 2 3 4 5 6 7 8 9 10 11 12 13 14 15 16 17 18 19 20 21 22 23 24 25 26 27 28 29 30 31 32 33 34 35 36 37 38 39 40 41 42 43 44 45 46 47 48 49 50
000
ASUS43 KOAX 241810
RWRNE

WEATHER ROUNDUP FOR NEBRASKA
NATIONAL WEATHER SERVICE OMAHA NE
100 PM CDT SUN MAY 24 2015

NOTES: SATELLITE DATA IS BEING USED TO AUGMENT CLOUD COVER ABOVE
       12000 FEET.
       "FAIR" INDICATES FEW OR NO CLOUDS BELOW 12,000 FEET WITH NO
       SIGNIFICANT WEATHER AND/OR OBSTRUCTIONS TO VISIBILITY.

  * THESE STATIONS DO NOT REPORT WEATHER SUCH AS RAIN...SNOW OR FOG.

NEZ001>004-019>022-054>056-241900-
NEBRASKA PANHANDLE

CITY           SKY/WX    TMP DP  RH WIND       PRES   REMARKS
SCOTTSBLUFF    PTSUNNY   62  51  67 E6        29.87F
6HR MIN TEMP:  51; 6HR MAX TEMP:  63;

ALLIANCE       PTSUNNY   61  52  72 VRB3      29.86F
6HR MIN TEMP:  50; 6HR MAX TEMP:  63;

CHADRON        PTSUNNY   63  54  72 NE8       29.88S
6HR MIN TEMP:  52; 6HR MAX TEMP:  63; 6HR PCP:  0.21;

KIMBALL          N/A    N/A N/A N/A MISG        N/A
SIDNEY         MOSUNNY   59  50  72 E5        29.89F
6HR MIN TEMP:  49; 6HR MAX TEMP:  59;

$$

NEZ057>060-069>072-079>082-241900-
SOUTHWEST NEBRASKA

CITY           SKY/WX    TMP DP  RH WIND       PRES   REMARKS
NORTH PLATTE   PTSUNNY   64  54  69 E5        29.87F
6HR MIN TEMP:  56; 6HR MAX TEMP:  64;

IMPERIAL       SUNNY     66  52  60 CALM      29.86F
6HR MIN TEMP:  54; 6HR MAX TEMP:  66;

LEXINGTON      CLOUDY    63  58  83 CALM      29.87S
MCCOOK         CLOUDY    66  56  70 E6        29.85S
6HR MIN TEMP:  56; 6HR MAX TEMP:  66;

OGALLALA       CLOUDY    64  54  70 CALM      29.87F
$$

NEZ005>010-023>029-035>040-094-241900-
NORTH CENTRAL NEBRASKA

CITY           SKY/WX    TMP DP  RH WIND       PRES   REMARKS
VALENTINE      CLOUDY    59  57  93 SE10      29.89S
6HR MIN TEMP:  54; 6HR MAX TEMP:  60; 6HR PCP:  0.10;

AINSWORTH      CLOUDY    59  59  99 E8        29.89S FOG
BROKEN BOW     CLOUDY    64  56  75 CALM      29.86F
6HR MIN TEMP:  58; 6HR MAX TEMP:  64; 6HR PCP:  0.05;

O`NEILL        CLOUDY    62  60  94 NE9       29.85F FOG
ORD            CLOUDY    63  57  81 N5        29.84F
6HR MIN TEMP:  57; 6HR MAX TEMP:  63;

THEDFORD       CLOUDY    61  58  90 CALM      29.89S
$$

NEZ041-046>049-061>064-073>077-083>087-241900-
SOUTH CENTRAL NEBRASKA

CITY           SKY/WX    TMP DP  RH WIND       PRES   REMARKS
GRAND ISLAND   CLOUDY    65  57  75 CALM      29.86R
6HR MIN TEMP:  58; 6HR MAX TEMP:  66;

AURORA         CLOUDY    66  60  80 W5        29.86R
HASTINGS       CLOUDY    64  57  78 SW7       29.86S
6HR MIN TEMP:  59; 6HR MAX TEMP:  65; 6HR PCP: TRACE;

HEBRON         CLOUDY    67  59  75 SW6       29.87R
HOLDREGE       CLOUDY    61  57  86 SW9       29.88R
KEARNEY *      CLOUDY    63  55  77 SW5       29.88R
YORK           CLOUDY    66  59  77 SW5       29.85S
$$

NEZ011>018-030>034-042>045-241900-
NORTHEAST NEBRASKA

CITY           SKY/WX    TMP DP  RH WIND       PRES   REMARKS
NORFOLK        CLOUDY    63  60  90 E5        29.82F
                                      6HR PCP:  0.39;

ALBION         CLOUDY    62  59  90 CALM      29.84S
BLAIR          CLOUDY    64  60  89 CALM      29.82F
COLUMBUS *     CLOUDY    63  55  77 CALM      29.86F
FREMONT        CLOUDY    66  61  84 CALM      29.83F
TEKAMAH        CLOUDY    66  61  84 S5        29.82F
6HR MIN TEMP:  60; 6HR MAX TEMP:  66; 6HR PCP:  0.01;

WAYNE          CLOUDY    63  60  91 E5        29.84F
$$

NEZ050>053-065>068-078-088>093-241900-
SOUTHEAST NEBRASKA

CITY           SKY/WX    TMP DP  RH WIND       PRES   REMARKS
LINCOLN        CLOUDY    67  60  78 W6        29.84F
6HR MIN TEMP:  60; 6HR MAX TEMP:  69; 6HR PCP: TRACE;

OMAHA EPPLEY   CLOUDY    65  62  90 S5        29.82F FOG
6HR MIN TEMP:  61; 6HR MAX TEMP:  65; 6HR PCP:  0.01;

BEATRICE       CLOUDY    68  61  76 SW6       29.85S
FALLS CITY     LGT RAIN  70  63  78 S9        29.85F
6HR MIN TEMP:  62; 6HR MAX TEMP:  71; 6HR PCP:  0.09;

NEBRASKA CITY  CLOUDY    68  64  86 SW7       29.85R
PLATTSMOUTH    CLOUDY    66  62  85 CALM      29.84S
$$

NEZ044-045-051>053-067-241900-
OMAHA AREA

CITY           SKY/WX    TMP DP  RH WIND       PRES   REMARKS
OMAHA EPPLEY   CLOUDY    65  62  90 S5        29.82F FOG
6HR MIN TEMP:  61; 6HR MAX TEMP:  65; 6HR PCP:  0.01;

BLAIR          CLOUDY    64  60  89 CALM      29.82F
FREMONT        CLOUDY    66  61  84 CALM      29.83F
MILLARD        CLOUDY    66  62  86 CALM      29.82F
OFFUTT AFB     CLOUDY    67  63  87 SW7       29.82S
PLATTSMOUTH    CLOUDY    66  62  85 CALM      29.84S
WAHOO          CLOUDY    66  61  83 CALM      29.83S
$$


USA.gov is the U.S. government's official web portal to all federal, state and local government web resources and services.